Location: Bluff Heights
(33.7692°N, 118.1592°W)
Time: 23:42:38
(UTC+00:00)

CZ-4B R/B - Pass Details

Date: 29 October 2020
Orbit: 388 x 461 km, 97.6° (Epoch: 29 November)

Event Time Altitude Azimuth Distance (km) Brightness Sun altitude
Rises 12:02:08 0° 140° (SE) 2,482 5.7 -27.0°
Reaches altitude 10° 12:04:28 10° 125° (SE) 1,610 4.9 -26.5°
Maximum altitude 12:07:13 22° 72° (ENE) 1,051 3.9 -26.0°
Drops below altitude 10° 12:09:57 10° 20° (NNE) 1,607 4.4 -25.4°
Enters shadow 12:11:07 - 10° (N) 2,030 4.8 -25.2°
